Content
SEND FEEDBACK

Daily
Averages
Monthly
Summary
United States of America

TIMBERLAKE, VIRGINIA


Home > North America > United States > Virginia
Elevation: 938 feet     Latitude: 37 19N     Longitude: 079 12W

WEATHER
 
SELECT A DAY
Number of Records: 211,594;   Date Range: 1/1/95 - 8/12/14
 
SHARE

PRINT THIS DATA

[ ← Previous Day ]
WEATHER ALMANAC - JANUARY 30, 2013
[ Next Day → ]
[ °C ]   °F
Weather ElementAverageHighLow
Temperature61.7 °F66.9 °F (1:54 pm)54 °F (11:54 pm)
Dewpoint58.3 °F63 °F (2:54 pm)52 °F (11:54 pm)
Humidity88.9 %100 % (10:04 pm)72 % (6:14 pm)
Barometer29.66 in29.94 in (1:54 am)29.31 in (10:54 pm)
Wind Speed15.3 mph25.3 mph (12:54 pm)
Wind Gust39.1 mph (11:03 pm)
Weather ElementAverage
Visibility9.1 mi
Wind DirectionS (184.2 °)

Weather ElementTotal
Precipitation1.15 in
Heating Degree Days4.6 (Base 65)
Growing Degree Days10.5 (Base 50)
Averaged from 36 records on January 30, 2013
WEATHER CONDITIONS BREAKOUT
WIND DIRECTION BREAKOUT
WEATHER BY HOUR - JANUARY 30, 2013
[ °C ]   °F
Local TimeTemperatureDewpointHumidityBarometerVisibilityWind DirectionWind SpeedGust SpeedPrecipitationEventsConditions
1:54 AM59.0 °F54.0 °F83 %29.94 in10.0 miSouth (170°)16.1 mphScattered Clouds
2:54 AM57.9 °F55.0 °F90 %29.94 in10.0 miSSW (200°)6.9 mphOvercast
3:36 AM59.0 °F55.4 °F88 %29.94 in10.0 miSouth (170°)10.4 mphOvercast
3:54 AM57.9 °F55.0 °F90 %29.92 in10.0 miSouth (180°)4.6 mphOvercast
4:10 AM57.2 °F55.4 °F94 %29.94 in10.0 miSSW (210°)8.1 mphOvercast
4:33 AM57.2 °F55.4 °F94 %29.92 in10.0 miSouth (190°)16.1 mphOvercast
4:54 AM59.0 °F55.9 °F90 %29.89 in10.0 miSouth (190°)13.8 mphOvercast
5:45 AM60.8 °F57.2 °F88 %29.88 in10.0 miSouth (180°)13.8 mphOvercast
5:54 AM60.1 °F57.0 °F90 %29.86 in10.0 miSouth (180°)16.1 mphOvercast
6:54 AM60.8 °F57.2 °F88 %29.87 in10.0 miSSW (200°)15.0 mphOvercast
7:25 AM62.6 °F59.0 °F88 %29.86 in10.0 miSSW (200°)15.0 mph24.2 mphOvercast
7:46 AM62.6 °F59.0 °F88 %29.85 in10.0 miSSW (200°)15.0 mphOvercast
7:54 AM63.0 °F59.0 °F87 %29.83 in10.0 miSouth (190°)13.8 mphOvercast
8:54 AM63.0 °F59.0 °F87 %29.82 in10.0 miSouth (190°)16.1 mphOvercast
9:54 AM64.0 °F60.1 °F87 %29.80 in10.0 miSouth (180°)19.6 mph28.8 mph0.00 inRainLight Rain
10:54 AM63.0 °F61.0 °F93 %29.78 in9.0 miSouth (190°)15.0 mph24.2 mph0.00 inRainLight Rain
11:54 AM64.0 °F62.1 °F93 %29.73 in10.0 miSouth (190°)18.4 mph25.3 mph0.01 inRainLight Rain
12:54 PM64.9 °F62.1 °F90 %29.68 in10.0 miSouth (190°)25.3 mph32.2 mph0.01 inOvercast
1:54 PM66.9 °F62.1 °F84 %29.63 in10.0 miSouth (190°)21.9 mph33.4 mph0.00 inOvercast
2:54 PM64.9 °F63.0 °F93 %29.62 in9.0 miSouth (190°)23.0 mph31.1 mph0.01 inRainLight Rain
3:54 PM64.9 °F62.1 °F90 %29.59 in10.0 miSouth (180°)19.6 mph32.2 mph0.00 inRainLight Rain
4:41 PM66.2 °F60.8 °F83 %29.57 in10.0 miSouth (170°)18.4 mph28.8 mph0.00 inRainLight Rain
4:54 PM66.0 °F61.0 °F84 %29.55 in10.0 miSouth (180°)15.0 mph25.3 mph0.00 inRainLight Rain
5:54 PM66.9 °F60.1 °F79 %29.52 in10.0 miSouth (180°)19.6 mph25.3 mph0.00 inOvercast
6:14 PM62.6 °F53.6 °F72 %29.56 in10.0 miVariable5.8 mph20.7 mphOvercast
6:54 PM60.1 °F55.0 °F83 %29.50 in10.0 miEast (80°)5.8 mphOvercast
7:54 PM62.1 °F57.9 °F86 %29.43 in10.0 miSSE (160°)9.2 mph0.01 inRainLight Rain
8:34 PM64.4 °F60.8 °F88 %29.38 in10.0 miSSE (160°)24.2 mph32.2 mph0.04 inRainLight Rain
8:54 PM64.0 °F60.1 °F87 %29.34 in10.0 miSouth (170°)25.3 mph32.2 mph0.05 inRainLight Rain
9:41 PM62.6 °F60.8 °F94 %29.41 in2.0 miWest (270°)16.1 mph25.3 mph0.09 inRainHeavy Rain
9:54 PM61.0 °F60.1 °F97 %29.35 in5.0 miSouth (190°)12.7 mph18.4 mph0.33 inRainRain
10:04 PM60.8 °F60.8 °F100 %29.35 in7.0 miSouth (180°)15.0 mph0.03 inRainRain
10:54 PM62.1 °F60.1 °F93 %29.31 in8.0 miSouth (190°)20.7 mph28.8 mph0.11 inRainLight Rain
11:03 PM57.2 °F55.4 °F94 %29.36 in2.0 miWSW (250°)16.1 mph39.1 mph0.11 inRainHeavy Rain
11:14 PM57.2 °F55.4 °F94 %29.35 in8.0 miWSW (240°)10.4 mph24.2 mph0.14 inRainLight Rain
11:54 PM54.0 °F52.0 °F93 %29.38 in7.0 miWSW (250°)11.5 mph20.7 mph0.21 inRainLight Rain
Hourly data recorded from KLYH, located miles away from Timberlake, Virginia







STORIES FROM OUR PARTNERS